| time (UTC) | temp F | wind direction | speed MPH | gust MPH | rain 1hr in | rain 24hr in | rain mn in | humidity % | barometer mb |
| 20260505013517 | 68 | 0.0 | 1.0 | 0.00 | 0.00 | 0.00 | 44 | 1014.4 | |
| 20260505012518 | 68 | 0.0 | 1.0 | 0.00 | 0.00 | 0.00 | 43 | 1014.3 | |
| 20260505011517 | 69 | 158 | 1.0 | 2.0 | 0.00 | 0.00 | 0.00 | 42 | 1014.3 |
| 20260505010517 | 70 | 0.0 | 1.0 | 0.00 | 0.00 | 0.00 | 41 | 1014.1 | |
| 20260505005518 | 70 | 158 | 1.0 | 2.0 | 0.00 | 0.00 | 0.00 | 40 | 1013.9 |
| 20260505004517 | 71 | 0.0 | 2.0 | 0.00 | 0.00 | 0.00 | 40 | 1013.8 | |
| 20260505003517 | 71 | 158 | 1.0 | 5.0 | 0.00 | 0.00 | 0.00 | 38 | 1013.5 |
| 20260505002517 | 72 | 0.0 | 1.0 | 0.00 | 0.00 | 0.00 | 39 | 1013.5 | |
| 20260505001517 | 72 | 158 | 1.0 | 5.0 | 0.00 | 0.00 | 0.00 | 37 | 1013.5 |
| 20260505000517 | 73 | 0.0 | 3.0 | 0.00 | 0.00 | 0.00 | 37 | 1013.3 | |
| 20260504235517 | 74 | 158 | 1.0 | 4.0 | 0.00 | 0.00 | 0.00 | 35 | 1013.2 |
| 20260504234517 | 74 | 180 | 1.0 | 7.0 | 0.00 | 0.00 | 0.00 | 35 | 1013.1 |
| 20260504233517 | 75 | 135 | 1.0 | 7.0 | 0.00 | 0.00 | 0.00 | 33 | 1013.0 |
| 20260504232517 | 75 | 158 | 1.0 | 6.0 | 0.00 | 0.00 | 0.00 | 33 | 1012.9 |
| 20260504231517 | 75 | 158 | 2.0 | 7.0 | 0.00 | 0.00 | 0.00 | 33 | 1012.9 |
| 20260504230517 | 75 | 158 | 1.0 | 5.0 | 0.00 | 0.00 | 0.00 | 34 | 1012.8 |
| 20260504225517 | 76 | 158 | 1.0 | 5.0 | 0.00 | 0.00 | 0.00 | 33 | 1012.8 |
| 20260504224517 | 76 | 158 | 1.0 | 5.0 | 0.00 | 0.00 | 0.00 | 32 | 1012.8 |
| 20260504223517 | 76 | 158 | 3.0 | 6.0 | 0.00 | 0.00 | 0.00 | 32 | 1012.9 |
| 20260504222517 | 76 | 158 | 1.0 | 6.0 | 0.00 | 0.00 | 0.00 | 32 | 1012.9 |
| 20260504221517 | 77 | 158 | 3.0 | 7.0 | 0.00 | 0.00 | 0.00 | 32 | 1012.9 |
| 20260504220517 | 77 | 158 | 4.0 | 9.0 | 0.00 | 0.00 | 0.00 | 31 | 1012.9 |
| 20260504215517 | 77 | 158 | 2.0 | 6.0 | 0.00 | 0.00 | 0.00 | 31 | 1013.0 |
| 20260504214517 | 77 | 158 | 2.0 | 6.0 | 0.00 | 0.00 | 0.00 | 34 | 1013.1 |
| 20260504213517 | 77 | 158 | 3.0 | 6.0 | 0.00 | 0.00 | 0.00 | 33 | 1013.0 |
| 20260504212517 | 77 | 158 | 3.0 | 6.0 | 0.00 | 0.00 | 0.00 | 32 | 1013.1 |
| 20260504211517 | 77 | 158 | 4.0 | 10.0 | 0.00 | 0.00 | 0.00 | 31 | 1013.1 |
| 20260504210517 | 77 | 158 | 4.0 | 9.0 | 0.00 | 0.00 | 0.00 | 32 | 1013.2 |
| 20260504205517 | 77 | 158 | 3.0 | 7.0 | 0.00 | 0.00 | 0.00 | 31 | 1013.3 |
| 20260504204517 | 77 | 158 | 2.0 | 6.0 | 0.00 | 0.00 | 0.00 | 31 | 1013.5 |
| 20260504203517 | 77 | 158 | 3.0 | 8.0 | 0.00 | 0.00 | 0.00 | 32 | 1013.6 |
| 20260504202517 | 77 | 158 | 3.0 | 9.0 | 0.00 | 0.00 | 0.00 | 34 | 1013.7 |
| 20260504201517 | 76 | 158 | 1.0 | 5.0 | 0.00 | 0.00 | 0.00 | 33 | 1013.9 |
| 20260504200517 | 76 | 158 | 1.0 | 5.0 | 0.00 | 0.00 | 0.00 | 33 | 1014.0 |
| 20260504195517 | 76 | 158 | 1.0 | 5.0 | 0.00 | 0.00 | 0.00 | 34 | 1014.0 |
| 20260504194517 | 77 | 135 | 2.0 | 6.0 | 0.00 | 0.00 | 0.00 | 36 | 1014.2 |
| 20260504193517 | 77 | 158 | 3.0 | 8.0 | 0.00 | 0.00 | 0.00 | 36 | 1014.3 |
| 20260504192517 | 77 | 135 | 1.0 | 5.0 | 0.00 | 0.00 | 0.00 | 40 | 1014.3 |
| 20260504191517 | 77 | 158 | 2.0 | 5.0 | 0.00 | 0.00 | 0.00 | 39 | 1014.5 |
| 20260504190517 | 77 | 158 | 3.0 | 7.0 | 0.00 | 0.00 | 0.00 | 41 | 1014.6 |
| 20260504185517 | 77 | 158 | 2.0 | 6.0 | 0.00 | 0.00 | 0.00 | 38 | 1014.7 |
| 20260504184517 | 77 | 180 | 3.0 | 6.0 | 0.00 | 0.00 | 0.00 | 37 | 1014.7 |
| 20260504183517 | 77 | 180 | 2.0 | 5.0 | 0.00 | 0.00 | 0.00 | 34 | 1014.8 |
| 20260504182517 | 77 | 135 | 2.0 | 5.0 | 0.00 | 0.00 | 0.00 | 36 | 1015.0 |
| 20260504181517 | 77 | 158 | 2.0 | 6.0 | 0.00 | 0.00 | 0.00 | 37 | 1015.2 |
| 20260504180517 | 76 | 158 | 2.0 | 4.0 | 0.00 | 0.00 | 0.00 | 38 | 1015.3 |
| 20260504175517 | 76 | 0 | 2.0 | 5.0 | 0.00 | 0.00 | 0.00 | 38 | 1015.4 |
| 20260504174517 | 77 | 158 | 3.0 | 5.0 | 0.00 | 0.00 | 0.00 | 39 | 1015.6 |
| 20260504173517 | 77 | 23 | 2.0 | 4.0 | 0.00 | 0.00 | 0.00 | 37 | 1015.7 |
| 20260504172517 | 76 | 23 | 2.0 | 6.0 | 0.00 | 0.00 | 0.00 | 33 | 1015.7 |
| 20260504171517 | 74 | 23 | 2.0 | 7.0 | 0.00 | 0.00 | 0.00 | 32 | 1015.8 |
| 20260504170517 | 74 | 135 | 2.0 | 5.0 | 0.00 | 0.00 | 0.00 | 35 | 1015.8 |
| 20260504150516 | 71 | 135 | 1.0 | 5.0 | 0.00 | 0.00 | 0.00 | 44 | 1017.3 |
| 20260504140516 | 67 | 90 | 1.0 | 2.0 | 0.00 | 0.00 | 0.00 | 56 | 1017.4 |
| 20260504130516 | 63 | 23 | 1.0 | 2.0 | 0.00 | 0.00 | 0.00 | 60 | 1017.3 |
| 20260504110516 | 45 | 0.0 | 0.0 | 0.00 | 0.00 | 0.00 | 83 | 1016.8 | |
| 20260504100516 | 46 | 0.0 | 0.0 | 0.00 | 0.00 | 0.00 | 79 | 1016.3 | |
| 20260504081516 | 51 | 0.0 | 2.0 | 0.00 | 0.00 | 0.00 | 69 | 1016.0 | |
| 20260504080515 | 52 | 0.0 | 1.0 | 0.00 | 0.00 | 0.00 | 69 | 1015.9 | |
| 20260504050517 | 54 | 0.0 | 1.0 | 0.00 | 0.00 | 0.00 | 66 | 1016.3 | |
| 20260504045517 | 54 | 0.0 | 1.0 | 0.00 | 0.00 | 0.00 | 66 | 1016.5 | |
| 20260504044517 | 54 | 0.0 | 1.0 | 0.00 | 0.00 | 0.00 | 67 | 1016.4 | |
| 20260504043517 | 54 | 0.0 | 1.0 | 0.00 | 0.00 | 0.00 | 67 | 1016.6 | |
| 20260504042517 | 54 | 0.0 | 1.0 | 0.00 | 0.00 | 0.00 | 66 | 1016.6 | |
| 20260504041517 | 54 | 0.0 | 1.0 | 0.00 | 0.00 | 0.00 | 66 | 1016.8 | |
| 20260504040517 | 55 | 0.0 | 0.0 | 0.00 | 0.00 | 0.00 | 65 | 1016.9 | |
| 20260504035516 | 55 | 0.0 | 0.0 | 0.00 | 0.00 | 0.00 | 64 | 1016.9 | |
| 20260504034516 | 56 | 0.0 | 0.0 | 0.00 | 0.00 | 0.00 | 63 | 1016.8 | |
| 20260504033516 | 56 | 0.0 | 0.0 | 0.00 | 0.00 | 0.00 | 63 | 1017.0 | |
| 20260504032516 | 57 | 0.0 | 0.0 | 0.00 | 0.00 | 0.00 | 62 | 1017.0 | |
| 20260504031516 | 57 | 0.0 | 1.0 | 0.00 | 0.00 | 0.00 | 61 | 1017.0 | |
| 20260504030516 | 58 | 0.0 | 0.0 | 0.00 | 0.00 | 0.00 | 60 | 1017.0 | |
| 20260504025516 | 58 | 0.0 | 2.0 | 0.00 | 0.00 | 0.00 | 58 | 1017.0 | |
| 20260504024516 | 59 | 158 | 1.0 | 4.0 | 0.00 | 0.00 | 0.00 | 57 | 1016.9 |
| 20260504023516 | 59 | 0.0 | 2.0 | 0.00 | 0.00 | 0.00 | 57 | 1016.8 | |
| 20260504022516 | 58 | 0.0 | 3.0 | 0.00 | 0.00 | 0.00 | 58 | 1016.5 | |
| 20260504021516 | 58 | 0.0 | 1.0 | 0.00 | 0.00 | 0.00 | 57 | 1016.4 | |
| 20260504020516 | 59 | 0.0 | 1.0 | 0.00 | 0.00 | 0.00 | 56 | 1016.4 | |
| 20260504015516 | 59 | 0.0 | 1.0 | 0.00 | 0.00 | 0.00 | 55 | 1016.3 | |
| 20260504014516 | 60 | 0.0 | 1.0 | 0.00 | 0.00 | 0.00 | 55 | 1016.1 |